C13LL KBZN-KBZN

Flight info

Callsign C13LL
Flight time 0h 11m
Altitude VFR
Route //PATTERN//
Aircraft

Departure

Time 2026-04-29 17:24
Airport Bozeman Yellowstone International Airport (KBZN)

Arrival

Time 2026-04-29 17:35
Airport Bozeman Yellowstone International Airport (KBZN)
Time Latitude Longitude Altitude Speed Heading
2026-04-29 17:20 45.77281 -111.15097 4456 ft 0 kts 57°
2026-04-29 17:20 45.77297 -111.15045 4456 ft 10 kts 59°
2026-04-29 17:20 45.77308 -111.15026 4455 ft 0 kts 46°
2026-04-29 17:20 45.77281 -111.14935 4456 ft 18 kts 134°
2026-04-29 17:21 45.77176 -111.14787 4456 ft 18 kts 134°
2026-04-29 17:21 45.77096 -111.14677 4458 ft 16 kts 135°
2026-04-29 17:21 45.77011 -111.14559 4461 ft 19 kts 135°
2026-04-29 17:21 45.76928 -111.14429 4466 ft 15 kts 111°
2026-04-29 17:22 45.76946 -111.14358 4468 ft 11 kts 47°
2026-04-29 17:22 45.76983 -111.14303 4470 ft 0 kts 45°
2026-04-29 17:22 45.77028 -111.14245 4471 ft 17 kts 31°
2026-04-29 17:22 45.77159 -111.14357 4463 ft 44 kts 316°
2026-04-29 17:23 45.77486 -111.14809 4466 ft 80 kts 316°
2026-04-29 17:23 45.77764 -111.15204 4555 ft 86 kts 314°
2026-04-29 17:23 45.78214 -111.15820 4682 ft 95 kts 318°
2026-04-29 17:23 45.78697 -111.16495 4858 ft 99 kts 315°
2026-04-29 17:24 45.79171 -111.17204 5051 ft 99 kts 314°
2026-04-29 17:24 45.79522 -111.18111 5030 ft 113 kts 269°
2026-04-29 17:24 45.79017 -111.18851 5077 ft 112 kts 184°
2026-04-29 17:24 45.78322 -111.18517 5189 ft 106 kts 139°
2026-04-29 17:25 45.77812 -111.17723 5260 ft 111 kts 130°
2026-04-29 17:25 45.77331 -111.16840 5347 ft 113 kts 126°
2026-04-29 17:25 45.76848 -111.15937 5418 ft 117 kts 131°
2026-04-29 17:25 45.76339 -111.15026 5463 ft 115 kts 127°
2026-04-29 17:26 45.75945 -111.14179 5455 ft 91 kts 117°
2026-04-29 17:26 45.76030 -111.13354 5165 ft 91 kts 34°
2026-04-29 17:26 45.76585 -111.13561 4791 ft 87 kts 318°
2026-04-29 17:26 45.76994 -111.14131 4531 ft 80 kts 316°
2026-04-29 17:27 45.77342 -111.14611 4455 ft 57 kts 316°
2026-04-29 17:27 45.77676 -111.15076 4494 ft 75 kts 315°
2026-04-29 17:27 45.78069 -111.15644 4625 ft 82 kts 315°
2026-04-29 17:27 45.78485 -111.16228 4784 ft 90 kts 317°
2026-04-29 17:28 45.78930 -111.16868 4996 ft 90 kts 315°
2026-04-29 17:28 45.79339 -111.17534 5181 ft 93 kts 297°
2026-04-29 17:28 45.79275 -111.18477 5237 ft 107 kts 231°
2026-04-29 17:28 45.78575 -111.18667 5307 ft 116 kts 155°
2026-04-29 17:29 45.77977 -111.17878 5406 ft 118 kts 134°
2026-04-29 17:29 45.77430 -111.16990 5467 ft 120 kts 130°
2026-04-29 17:29 45.76900 -111.16027 5433 ft 128 kts 127°
2026-04-29 17:29 45.76376 -111.14996 5467 ft 126 kts 126°
2026-04-29 17:30 45.75872 -111.13965 5517 ft 126 kts 124°
2026-04-29 17:30 45.75402 -111.12940 5572 ft 118 kts 123°
2026-04-29 17:30 45.75157 -111.11903 5506 ft 113 kts 75°
2026-04-29 17:30 45.75745 -111.11448 5196 ft 105 kts 336°
2026-04-29 17:31 45.76119 -111.12373 5009 ft 118 kts 294°
2026-04-29 17:31 45.76544 -111.13444 4746 ft 124 kts 308°
2026-04-29 17:31 45.77080 -111.14242 4505 ft 100 kts 316°
2026-04-29 17:31 45.77505 -111.14836 4454 ft 79 kts 315°
2026-04-29 17:32 45.77924 -111.15432 4580 ft 88 kts 315°
2026-04-29 17:32 45.78364 -111.16060 4784 ft 89 kts 317°
2026-04-29 17:32 45.78842 -111.16709 4919 ft 99 kts 316°
2026-04-29 17:32 45.79027 -111.17611 5076 ft 104 kts 245°
2026-04-29 17:33 45.78381 -111.17915 5180 ft 110 kts 161°
2026-04-29 17:33 45.77787 -111.17232 5279 ft 113 kts 133°
2026-04-29 17:33 45.77247 -111.16414 5399 ft 113 kts 133°
2026-04-29 17:33 45.76706 -111.15594 5503 ft 114 kts 135°
2026-04-29 17:34 45.76172 -111.14750 5605 ft 115 kts 131°
2026-04-29 17:34 45.75734 -111.13904 5598 ft 93 kts 111°
2026-04-29 17:34 45.76041 -111.13154 5122 ft 105 kts 12°
2026-04-29 17:34 45.76650 -111.13617 4657 ft 102 kts 315°
2026-04-29 17:35 45.77288 -111.14528 4455 ft 50 kts 317°
2026-04-29 17:35 45.77515 -111.14906 4454 ft 14 kts 260°
2026-04-29 17:35 45.77460 -111.15009 4452 ft 12 kts 227°